Radiation Dose at Monitoring Post of Fukushima Daini Nuclear Power Station
Date,Time,MP-1(microSv/h),MP-2(microSv/h),MP-3(microSv/h),MP-4(microSv/h),MP-5(microSv/h),MP-6(microSv/h),MP-7(microSv/h),Wind Direction,Wind Velocity(m/s),Rain
2017/01/13,00:00,0.387,0.232,0.397,0.369,0.336,0.192,0.164,west-northwest,1.8,No
2017/01/13,00:10,0.388,0.231,0.397,0.370,0.338,0.191,0.163,northwest,2.8,No
2017/01/13,00:20,0.388,0.232,0.397,0.370,0.337,0.191,0.163,northwest,2.6,No
2017/01/13,00:30,0.387,0.231,0.398,0.369,0.336,0.191,0.163,northwest,2.8,Yes
2017/01/13,00:40,0.387,0.233,0.396,0.372,0.339,0.192,0.165,northwest,3.7,Yes
2017/01/13,00:50,0.389,0.234,0.399,0.372,0.338,0.194,0.166,north-northwest,5.0,Yes
2017/01/13,01:00,0.390,0.236,0.400,0.373,0.339,0.195,0.167,northwest,5.0,Yes
2017/01/13,01:10,0.391,0.234,0.398,0.372,0.340,0.195,0.167,north-northwest,5.0,Yes
2017/01/13,01:20,0.390,0.235,0.401,0.374,0.340,0.195,0.167,northwest,5.0,Yes
2017/01/13,01:30,0.393,0.235,0.400,0.372,0.340,0.195,0.167,northwest,4.8,Yes
2017/01/13,01:40,0.392,0.235,0.400,0.371,0.339,0.195,0.167,west-northwest,4.6,No
2017/01/13,01:50,0.390,0.234,0.399,0.372,0.338,0.194,0.166,west-northwest,4.0,No
2017/01/13,02:00,0.390,0.234,0.399,0.372,0.338,0.194,0.165,west-northwest,5.0,No
2017/01/13,02:10,0.390,0.234,0.399,0.372,0.339,0.194,0.165,west,5.6,No
2017/01/13,02:20,0.390,0.235,0.399,0.369,0.337,0.193,0.165,west-southwest,4.5,No
2017/01/13,02:30,0.388,0.234,0.398,0.370,0.337,0.193,0.164,west-southwest,4.3,No
2017/01/13,02:40,0.388,0.233,0.397,0.370,0.338,0.192,0.164,west-northwest,3.4,No
2017/01/13,02:50,0.389,0.233,0.399,0.370,0.337,0.192,0.164,north-northwest,5.2,No
2017/01/13,03:00,0.389,0.231,0.397,0.369,0.338,0.192,0.163,northwest,4.7,No
2017/01/13,03:10,0.388,0.232,0.398,0.369,0.337,0.192,0.163,west-northwest,3.4,No
2017/01/13,03:20,0.386,0.231,0.398,0.370,0.337,0.191,0.164,west-northwest,4.7,No
2017/01/13,03:30,0.387,0.231,0.398,0.369,0.336,0.192,0.163,northwest,3.9,No
2017/01/13,03:40,0.387,0.231,0.398,0.369,0.338,0.192,0.163,northwest,3.0,No
2017/01/13,03:50,0.388,0.232,0.397,0.370,0.337,0.191,0.164,north-northwest,3.2,No
2017/01/13,04:00,0.386,0.232,0.396,0.370,0.336,0.192,0.165,north-northwest,5.6,No
2017/01/13,04:10,0.389,0.232,0.399,0.370,0.336,0.192,0.164,north,6.9,No
2017/01/13,04:20,0.387,0.233,0.399,0.367,0.337,0.192,0.164,north,6.0,No
2017/01/13,04:30,0.388,0.231,0.395,0.368,0.336,0.192,0.164,north,6.1,No
2017/01/13,04:40,0.388,0.233,0.399,0.368,0.336,0.193,0.163,north,5.5,No
2017/01/13,04:50,0.386,0.231,0.395,0.370,0.336,0.191,0.164,north,6.9,No
2017/01/13,05:00,0.387,0.231,0.398,0.370,0.337,0.191,0.164,north,6.1,No
2017/01/13,05:10,0.388,0.233,0.399,0.368,0.336,0.192,0.163,north,6.7,No
2017/01/13,05:20,0.388,0.231,0.397,0.370,0.336,0.191,0.163,north,7.8,No
2017/01/13,05:30,0.387,0.232,0.396,0.369,0.337,0.191,0.163,north,6.8,No
2017/01/13,05:40,0.386,0.231,0.398,0.368,0.337,0.192,0.163,north,7.3,No
2017/01/13,05:50,0.387,0.231,0.398,0.370,0.335,0.192,0.164,north,6.7,No
2017/01/13,06:00,0.388,0.230,0.399,0.368,0.336,0.191,0.164,north-northeast,6.4,No
2017/01/13,06:10,0.388,0.231,0.397,0.368,0.336,0.191,0.163,north,7.7,No
2017/01/13,06:20,0.387,0.232,0.397,0.368,0.336,0.192,0.164,north,7.5,No
2017/01/13,06:30,0.388,0.230,0.397,0.370,0.336,0.191,0.164,north,6.2,No
2017/01/13,06:40,0.388,0.231,0.398,0.368,0.336,0.192,0.164,north,6.5,No
2017/01/13,06:50,0.387,0.231,0.397,0.368,0.335,0.192,0.164,north,6.0,No
2017/01/13,07:00,0.389,0.233,0.397,0.369,0.336,0.192,0.164,north,7.0,No
2017/01/13,07:10,0.387,0.234,0.397,0.369,0.335,0.190,0.164,north,7.5,No
2017/01/13,07:20,0.387,0.233,0.397,0.368,0.336,0.191,0.163,north,8.4,No
2017/01/13,07:30,0.388,0.232,0.399,0.367,0.336,0.191,0.163,north,7.8,No
2017/01/13,07:40,0.388,0.231,0.398,0.368,0.335,0.192,0.164,north,6.0,No
2017/01/13,07:50,0.388,0.231,0.398,0.368,0.337,0.190,0.163,north,6.4,No
2017/01/13,08:00,0.389,0.231,0.396,0.369,0.336,0.192,0.164,north,6.4,No
2017/01/13,08:10,0.387,0.231,0.397,0.367,0.336,0.192,0.164,north,5.9,No
2017/01/13,08:20,0.389,0.232,0.397,0.367,0.336,0.191,0.163,north,6.3,No
2017/01/13,08:30,0.388,0.230,0.397,0.369,0.336,0.192,0.164,north,6.5,No
2017/01/13,08:40,0.387,0.231,0.396,0.368,0.338,0.190,0.163,north,5.0,No
2017/01/13,08:50,0.386,0.232,0.396,0.368,0.337,0.191,0.162,north-northwest,4.2,No
2017/01/13,09:00,0.387,0.231,0.398,0.369,0.336,0.191,0.164,north,4.3,No
2017/01/13,09:10,0.389,0.231,0.397,0.368,0.335,0.190,0.163,north,7.0,No
2017/01/13,09:20,0.389,0.233,0.397,0.367,0.335,0.191,0.163,north,6.2,No
2017/01/13,09:30,0.388,0.231,0.397,0.369,0.336,0.191,0.163,north,5.9,No
2017/01/13,09:40,0.388,0.231,0.399,0.368,0.336,0.191,0.163,north,4.6,No
2017/01/13,09:50,0.390,0.231,0.398,0.368,0.336,0.192,0.162,north,4.9,No
2017/01/13,10:00,0.388,0.232,0.396,0.368,0.337,0.191,0.165,north,5.6,No
2017/01/13,10:10,0.387,0.230,0.397,0.366,0.337,0.192,0.164,north,4.6,No
2017/01/13,10:20,0.386,0.229,0.397,0.369,0.336,0.191,0.165,north-northeast,7.4,No
2017/01/13,10:30,0.386,0.231,0.398,0.367,0.337,0.191,0.163,north,5.3,No
2017/01/13,10:40,0.387,0.231,0.398,0.372,0.336,0.192,0.164,north,5.9,No
2017/01/13,10:50,0.386,0.231,0.397,0.371,0.336,0.191,0.164,north,5.3,No
2017/01/13,11:00,0.388,0.230,0.399,0.368,0.339,0.192,0.164,north,5.8,No
2017/01/13,11:10,0.386,0.232,0.395,0.371,0.338,0.192,0.164,north,6.3,No
2017/01/13,11:20,0.387,0.231,0.394,0.368,0.336,0.191,0.163,north,5.0,No
2017/01/13,11:30,0.386,0.231,0.399,0.369,0.338,0.192,0.164,north-northeast,6.3,No
2017/01/13,11:40,0.388,0.232,0.398,0.371,0.338,0.191,0.164,north,5.3,No
2017/01/13,11:50,0.386,0.232,0.395,0.368,0.336,0.192,0.164,north-northeast,5.3,No
2017/01/13,12:00,0.388,0.232,0.398,0.370,0.338,0.191,0.164,north-northeast,7.3,No
2017/01/13,12:10,0.389,0.232,0.395,0.367,0.338,0.191,0.164,north-northeast,7.1,No
2017/01/13,12:20,0.387,0.231,0.397,0.367,0.335,0.191,0.165,north-northeast,6.4,No
2017/01/13,12:30,0.389,0.232,0.398,0.370,0.340,0.191,0.163,north,6.0,No
2017/01/13,12:40,0.387,0.232,0.398,0.369,0.339,0.191,0.164,north,7.8,No
2017/01/13,12:50,0.388,0.232,0.397,0.369,0.338,0.191,0.164,north,5.9,No
2017/01/13,13:00,0.387,0.232,0.399,0.371,0.338,0.192,0.164,north,5.8,No
2017/01/13,13:10,0.387,0.231,0.400,0.370,0.337,0.191,0.164,north,6.2,No
2017/01/13,13:20,0.389,0.231,0.397,0.371,0.338,0.191,0.163,north,5.5,No
2017/01/13,13:30,0.389,0.232,0.397,0.371,0.338,0.191,0.164,north,5.9,Yes
2017/01/13,13:40,0.390,0.234,0.400,0.371,0.339,0.192,0.165,north-northeast,5.9,Yes
2017/01/13,13:50,0.391,0.234,0.399,0.371,0.340,0.192,0.167,north,8.1,Yes
2017/01/13,14:00,0.394,0.235,0.400,0.373,0.342,0.192,0.169,north,7.8,Yes
2017/01/13,14:10,0.393,0.235,0.400,0.373,0.340,0.193,0.168,north,7.4,Yes
2017/01/13,14:20,0.390,0.236,0.401,0.373,0.341,0.194,0.168,north,6.7,Yes
2017/01/13,14:30,0.394,0.236,0.401,0.373,0.339,0.195,0.169,north-northwest,4.8,Yes
2017/01/13,14:40,0.392,0.236,0.400,0.373,0.341,0.194,0.168,north,5.3,Yes
2017/01/13,14:50,0.391,0.235,0.399,0.373,0.339,0.194,0.169,north-northwest,4.7,Yes
2017/01/13,15:00,0.394,0.237,0.401,0.371,0.340,0.195,0.168,north,5.8,Yes
2017/01/13,15:10,0.391,0.236,0.401,0.372,0.340,0.196,0.168,north,4.7,Yes
2017/01/13,15:20,0.392,0.236,0.400,0.371,0.340,0.196,0.168,north,4.3,No
2017/01/13,15:30,0.390,0.234,0.397,0.373,0.339,0.195,0.167,north-northwest,4.5,No
2017/01/13,15:40,0.390,0.233,0.399,0.370,0.338,0.195,0.166,north-northwest,5.0,No
2017/01/13,15:50,0.389,0.233,0.400,0.370,0.338,0.194,0.165,north-northwest,4.9,No
2017/01/13,16:00,0.390,0.232,0.398,0.369,0.338,0.192,0.165,north-northwest,4.8,No
2017/01/13,16:10,0.390,0.232,0.398,0.371,0.337,0.193,0.165,north,5.0,No
2017/01/13,16:20,0.388,0.232,0.398,0.369,0.335,0.192,0.164,north,5.7,No
2017/01/13,16:30,0.388,0.232,0.397,0.369,0.337,0.192,0.165,north,6.6,No
2017/01/13,16:40,0.389,0.232,0.397,0.369,0.338,0.193,0.164,north,6.1,No
2017/01/13,16:50,0.389,0.231,0.398,0.369,0.337,0.192,0.164,north,5.8,No
2017/01/13,17:00,0.389,0.233,0.398,0.367,0.336,0.191,0.164,north,5.7,No
2017/01/13,17:10,0.388,0.232,0.398,0.370,0.336,0.191,0.164,north,4.8,No
2017/01/13,17:20,0.388,0.230,0.398,0.369,0.336,0.191,0.163,north,5.3,No
2017/01/13,17:30,0.388,0.232,0.396,0.367,0.336,0.191,0.164,north,5.8,No
2017/01/13,17:40,0.387,0.232,0.398,0.367,0.336,0.192,0.164,north-northwest,5.6,No
2017/01/13,17:50,0.386,0.232,0.397,0.368,0.336,0.191,0.164,north-northwest,5.2,No
2017/01/13,18:00,0.388,0.230,0.398,0.369,0.334,0.191,0.163,north-northwest,5.9,No
2017/01/13,18:10,0.389,0.232,0.398,0.368,0.337,0.191,0.163,north-northwest,5.3,No
2017/01/13,18:20,0.387,0.230,0.396,0.369,0.336,0.191,0.163,north-northwest,5.7,No
2017/01/13,18:30,0.387,0.233,0.396,0.368,0.335,0.191,0.163,north-northwest,6.4,No
2017/01/13,18:40,0.388,0.231,0.398,0.368,0.336,0.191,0.163,north-northwest,7.0,No
2017/01/13,18:50,0.387,0.232,0.398,0.367,0.335,0.192,0.163,north-northwest,7.3,No
2017/01/13,19:00,0.388,0.232,0.397,0.369,0.337,0.191,0.163,north-northwest,6.5,No
2017/01/13,19:10,0.388,0.232,0.397,0.369,0.336,0.190,0.163,north-northwest,6.4,No
2017/01/13,19:20,0.387,0.231,0.397,0.366,0.336,0.191,0.163,north-northwest,6.0,No
2017/01/13,19:30,0.388,0.232,0.397,0.370,0.336,0.191,0.162,north-northwest,5.0,No
2017/01/13,19:40,0.388,0.231,0.396,0.368,0.336,0.190,0.164,north-northwest,4.7,No
2017/01/13,19:50,0.389,0.231,0.396,0.368,0.336,0.190,0.163,north-northwest,6.1,No
2017/01/13,20:00,0.388,0.230,0.396,0.369,0.334,0.192,0.163,north-northwest,5.5,No
2017/01/13,20:10,0.388,0.231,0.397,0.367,0.336,0.192,0.163,north-northwest,5.7,No
2017/01/13,20:20,0.388,0.231,0.398,0.369,0.335,0.191,0.163,north-northwest,6.0,No
2017/01/13,20:30,0.387,0.230,0.397,0.368,0.334,0.191,0.163,north-northwest,5.1,No
2017/01/13,20:40,0.387,0.232,0.395,0.368,0.334,0.191,0.163,north-northwest,4.2,No
2017/01/13,20:50,0.389,0.232,0.398,0.369,0.336,0.190,0.163,north,5.4,No
2017/01/13,21:00,0.388,0.232,0.397,0.367,0.336,0.191,0.163,north,6.1,No
2017/01/13,21:10,0.387,0.231,0.398,0.369,0.336,0.191,0.163,north,7.5,No
2017/01/13,21:20,0.388,0.232,0.397,0.369,0.336,0.191,0.163,north,8.5,No
2017/01/13,21:30,0.388,0.231,0.396,0.369,0.336,0.191,0.163,north,8.4,No
2017/01/13,21:40,0.388,0.232,0.396,0.368,0.335,0.192,0.163,north,8.2,No
2017/01/13,21:50,0.387,0.231,0.397,0.368,0.336,0.191,0.163,north,9.0,No
2017/01/13,22:00,0.387,0.232,0.399,0.370,0.335,0.191,0.163,north,9.2,No
2017/01/13,22:10,0.389,0.233,0.398,0.368,0.335,0.191,0.163,north-northwest,10.4,No
2017/01/13,22:20,0.388,0.233,0.397,0.367,0.335,0.191,0.164,north-northwest,10.4,No
2017/01/13,22:30,0.388,0.231,0.398,0.369,0.335,0.191,0.163,north,9.7,No
2017/01/13,22:40,0.389,0.233,0.398,0.369,0.336,0.191,0.163,north-northwest,9.5,No
2017/01/13,22:50,0.388,0.231,0.397,0.368,0.337,0.191,0.163,north,9.8,No
2017/01/13,23:00,0.388,0.232,0.400,0.369,0.336,0.191,0.164,north-northwest,8.9,No
2017/01/13,23:10,0.389,0.231,0.398,0.367,0.335,0.191,0.163,north,9.6,No
2017/01/13,23:20,0.389,0.231,0.398,0.368,0.334,0.191,0.163,north-northwest,7.8,No
2017/01/13,23:30,0.389,0.232,0.398,0.367,0.336,0.192,0.163,north,8.6,No
2017/01/13,23:40,0.388,0.232,0.398,0.370,0.336,0.191,0.163,north,9.4,No
2017/01/13,23:50,0.387,0.232,0.398,0.370,0.336,0.191,0.163,north,10.5,No
